Location: Newark
(7.0858°N, 171.3717°E)
Time: 15:26:33
(UTC+00:00)

Courier 1B Rocket - Pass Details

Date: 02 December 2020
Orbit: 920 x 1202 km, 28.2° (Epoch: 20 January)

Event Time Altitude Azimuth Distance (km) Brightness Sun altitude
Rises 01:33:44 0° 281° (W) 3,857 8.3 56.3°
Reaches altitude 10° 01:36:54 10° 270° (W) 2,853 7.8 55.9°
Maximum altitude 01:42:48 30° 212° (SSW) 1,708 7.7 55.1°
Drops below altitude 10° 01:48:23 10° 152° (SSE) 2,689 7.7 54.3°
Sets 01:51:18 0° 141° (SE) 3,603 8.1 53.9°
